Location: Kikino
(54.4440°N, 112.0940°W)
Time: 17:56:14
(UTC+00:00)

A-11 Canister half - Pass Details

Date: 24 May 2024
Orbit: 1525 x 1683 km, 47.3° (Epoch: 12 June)

Event Time Altitude Azimuth Distance (km) Brightness Sun altitude
Rises 08:23:03 0° 272° (W) 4,739 11.5 -13.7°
Reaches altitude 10° 08:26:11 10° 268° (W) 3,774 10.9 -13.5°
Maximum altitude 08:35:18 51° 196° (SSW) 1,950 9.2 -13.2°
Drops below altitude 10° 08:44:44 10° 125° (SE) 3,889 11.0 -12.8°
Sets 08:48:01 0° 121° (ESE) 4,892 11.5 -12.6°
